Time,TemperatureF,DewpointF,PressureIn,WindDirection,WindDirectionDegrees,WindSpeedMPH,WindSpeedGustMPH,Humidity,HourlyPrecipIn,Conditions,Clouds,dailyrainin,SoftwareType,DateUTC
2013-08-03 00:02:00,70.7,46.5,29.95,NNW,336,6.9,6.9,42,0.00,CLR,,0.00,WeatherDisplay:10.37,2013-08-03 07:02:00,
2013-08-03 00:07:00,70.5,46.9,29.95,NNW,336,9.2,9.2,43,0.00,CLR,,0.00,WeatherDisplay:10.37,2013-08-03 07:07:00,
2013-08-03 00:12:00,70.3,46.7,29.95,NNW,336,9.2,9.2,43,0.00,CLR,,0.00,WeatherDisplay:10.37,2013-08-03 07:12:00,
2013-08-03 00:17:00,69.9,47.0,29.95,NNW,336,10.4,10.4,44,0.00,CLR,,0.00,WeatherDisplay:10.37,2013-08-03 07:17:00,
2013-08-03 00:22:00,69.7,47.4,29.95,NNW,336,8.1,8.1,45,0.00,CLR,,0.00,WeatherDisplay:10.37,2013-08-03 07:22:00,
2013-08-03 00:27:00,69.5,47.8,29.95,NNW,336,9.2,9.2,46,0.00,CLR,,0.00,WeatherDisplay:10.37,2013-08-03 07:27:00,
2013-08-03 00:32:00,69.1,48.0,29.95,NNW,336,6.9,6.9,47,0.00,CLR,,0.00,WeatherDisplay:10.37,2013-08-03 07:32:00,
2013-08-03 00:37:00,68.8,47.7,29.95,NNW,336,4.6,4.6,47,0.00,CLR,,0.00,WeatherDisplay:10.37,2013-08-03 07:37:00,
2013-08-03 00:42:00,68.4,47.4,29.95,NNW,336,5.8,5.8,47,0.00,CLR,,0.00,WeatherDisplay:10.37,2013-08-03 07:42:00,
2013-08-03 00:47:00,68.1,47.7,29.95,NNW,336,4.6,4.6,48,0.00,CLR,,0.00,WeatherDisplay:10.37,2013-08-03 07:47:00,
2013-08-03 00:52:00,68.1,47.7,29.95,NNW,336,6.0,6.0,48,0.00,CLR,,0.00,WeatherDisplay:10.37,2013-08-03 07:52:00,
2013-08-03 00:57:00,68.1,47.7,29.95,NNW,336,4.6,4.6,48,0.00,CLR,,0.00,WeatherDisplay:10.37,2013-08-03 07:57:00,
2013-08-03 01:02:00,68.0,47.0,29.96,NNW,336,4.6,4.6,47,0.00,CLR,,0.00,WeatherDisplay:10.37,2013-08-03 08:02:00,
2013-08-03 01:07:00,68.0,47.0,29.95,NNW,336,5.8,5.8,47,0.00,CLR,,0.00,WeatherDisplay:10.37,2013-08-03 08:07:00,
2013-08-03 01:12:00,67.8,47.4,29.96,NNW,336,6.9,6.9,48,0.00,CLR,,0.00,WeatherDisplay:10.37,2013-08-03 08:12:00,
2013-08-03 01:17:00,67.7,47.3,29.96,NNW,336,5.0,5.0,48,0.00,CLR,,0.00,WeatherDisplay:10.37,2013-08-03 08:17:00,
2013-08-03 01:22:00,67.7,47.3,29.96,NNW,336,4.0,4.0,48,0.00,CLR,,0.00,WeatherDisplay:10.37,2013-08-03 08:22:00,
2013-08-03 01:27:00,67.6,47.8,29.96,NNW,336,4.0,4.0,49,0.00,CLR,,0.00,WeatherDisplay:10.37,2013-08-03 08:27:00,
2013-08-03 01:32:00,67.2,47.4,29.95,NNW,336,4.0,4.0,49,0.00,CLR,,0.00,WeatherDisplay:10.37,2013-08-03 08:32:00,
2013-08-03 01:37:00,66.7,46.9,29.96,NNW,336,3.5,3.5,49,0.00,CLR,,0.00,WeatherDisplay:10.37,2013-08-03 08:37:00,
2013-08-03 01:42:00,66.6,46.8,29.95,NNW,336,4.6,4.6,49,0.00,CLR,,0.00,WeatherDisplay:10.37,2013-08-03 08:42:00,
2013-08-03 01:47:00,66.8,47.0,29.95,NNW,336,5.0,5.0,49,0.00,CLR,,0.00,WeatherDisplay:10.37,2013-08-03 08:47:00,
2013-08-03 01:53:00,66.9,46.6,29.95,NNW,336,4.6,4.6,48,0.00,CLR,,0.00,WeatherDisplay:10.37,2013-08-03 08:53:00,
2013-08-03 01:58:00,66.8,46.5,29.95,NNW,336,5.8,5.8,48,0.00,CLR,,0.00,WeatherDisplay:10.37,2013-08-03 08:58:00,
2013-08-03 02:03:00,66.6,45.7,29.95,NNW,336,4.6,4.6,47,0.00,CLR,,0.00,WeatherDisplay:10.37,2013-08-03 09:03:00,
2013-08-03 02:08:00,66.5,45.1,29.95,NNW,336,6.0,6.0,46,0.00,CLR,,0.00,WeatherDisplay:10.37,2013-08-03 09:08:00,
2013-08-03 02:13:00,66.9,44.3,29.95,NNW,336,5.0,5.0,44,0.00,CLR,,0.00,WeatherDisplay:10.37,2013-08-03 09:13:00,
2013-08-03 02:18:00,66.8,43.0,29.95,NNW,336,6.0,6.0,42,0.00,CLR,,0.00,WeatherDisplay:10.37,2013-08-03 09:18:00,
2013-08-03 02:23:00,67.0,41.9,29.95,NNW,336,3.5,3.5,40,0.00,CLR,,0.00,WeatherDisplay:10.37,2013-08-03 09:23:00,
2013-08-03 02:28:00,66.9,39.8,29.94,NNW,336,5.8,5.8,37,0.00,CLR,,0.00,WeatherDisplay:10.37,2013-08-03 09:28:00,
2013-08-03 02:33:00,66.7,38.2,29.94,NNW,336,8.1,8.1,35,0.00,CLR,,0.00,WeatherDisplay:10.37,2013-08-03 09:33:00,
2013-08-03 02:38:00,66.5,36.5,29.94,NNW,336,6.9,6.9,33,0.00,CLR,,0.00,WeatherDisplay:10.37,2013-08-03 09:38:00,
2013-08-03 02:43:00,66.4,35.6,29.94,NNW,336,6.0,6.0,32,0.00,CLR,,0.00,WeatherDisplay:10.37,2013-08-03 09:43:00,
2013-08-03 02:48:00,66.2,34.7,29.94,NNW,336,7.0,7.0,31,0.00,CLR,,0.00,WeatherDisplay:10.37,2013-08-03 09:48:00,
2013-08-03 02:53:00,65.8,33.5,29.94,NNW,336,10.4,10.4,30,0.00,CLR,,0.00,WeatherDisplay:10.37,2013-08-03 09:53:00,
2013-08-03 02:58:00,65.2,33.0,29.94,NNW,336,4.0,4.0,30,0.00,CLR,,0.00,WeatherDisplay:10.37,2013-08-03 09:58:00,
2013-08-03 03:03:00,64.8,33.4,29.94,NNW,336,3.5,3.5,31,0.00,CLR,,0.00,WeatherDisplay:10.37,2013-08-03 10:03:00,
2013-08-03 03:08:00,64.4,33.1,29.94,NNW,336,4.0,4.0,31,0.00,CLR,,0.00,WeatherDisplay:10.37,2013-08-03 10:08:00,
2013-08-03 03:13:00,63.7,33.3,29.94,NNW,336,4.0,4.0,32,0.00,CLR,,0.00,WeatherDisplay:10.37,2013-08-03 10:13:00,
2013-08-03 03:18:00,63.1,32.7,29.94,NNW,336,3.5,3.5,32,0.00,CLR,,0.00,WeatherDisplay:10.37,2013-08-03 10:18:00,
2013-08-03 03:23:00,62.6,33.1,29.94,NNW,336,4.0,4.0,33,0.00,CLR,,0.00,WeatherDisplay:10.37,2013-08-03 10:23:00,
2013-08-03 03:28:00,62.3,32.8,29.94,NNW,336,3.5,3.5,33,0.00,CLR,,0.00,WeatherDisplay:10.37,2013-08-03 10:28:00,
2013-08-03 03:33:00,62.2,32.7,29.94,NNW,336,3.5,3.5,33,0.00,CLR,,0.00,WeatherDisplay:10.37,2013-08-03 10:33:00,
2013-08-03 03:38:00,61.8,32.4,29.94,NNW,336,3.5,3.5,33,0.00,CLR,,0.00,WeatherDisplay:10.37,2013-08-03 10:38:00,
2013-08-03 03:43:00,61.4,32.8,29.94,NNW,336,2.3,2.3,34,0.00,CLR,,0.00,WeatherDisplay:10.37,2013-08-03 10:43:00,
2013-08-03 03:48:00,61.0,32.4,29.94,NNW,336,2.3,2.3,34,0.00,CLR,,0.00,WeatherDisplay:10.37,2013-08-03 10:48:00,
2013-08-03 03:53:00,60.7,32.1,29.94,NNW,336,2.3,2.3,34,0.00,CLR,,0.00,WeatherDisplay:10.37,2013-08-03 10:53:00,
2013-08-03 03:58:00,60.5,32.7,29.94,NNW,336,3.5,3.5,35,0.00,CLR,,0.00,WeatherDisplay:10.37,2013-08-03 10:58:00,
2013-08-03 04:03:00,61.2,32.6,29.94,NNW,336,3.5,3.5,34,0.00,CLR,,0.00,WeatherDisplay:10.37,2013-08-03 11:03:00,
2013-08-03 04:08:00,62.0,33.3,29.94,NNW,336,3.5,3.5,34,0.00,CLR,,0.00,WeatherDisplay:10.37,2013-08-03 11:08:00,
2013-08-03 04:13:00,62.7,33.9,29.94,NNW,336,3.5,3.5,34,0.00,CLR,,0.00,WeatherDisplay:10.37,2013-08-03 11:13:00,
2013-08-03 04:18:00,63.6,34.7,29.94,NNW,336,3.5,3.5,34,0.00,CLR,,0.00,WeatherDisplay:10.37,2013-08-03 11:18:00,
2013-08-03 04:23:00,64.3,35.3,29.94,NNW,336,4.6,4.6,34,0.00,CLR,,0.00,WeatherDisplay:10.37,2013-08-03 11:23:00,
2013-08-03 04:28:00,64.6,35.6,29.94,NNW,336,3.5,3.5,34,0.00,CLR,,0.00,WeatherDisplay:10.37,2013-08-03 11:28:00,
2013-08-03 04:33:00,64.7,34.9,29.94,NNW,336,4.6,4.6,33,0.00,CLR,,0.00,WeatherDisplay:10.37,2013-08-03 11:33:00,
2013-08-03 04:38:00,64.6,34.8,29.94,NNW,336,3.5,3.5,33,0.00,CLR,,0.00,WeatherDisplay:10.37,2013-08-03 11:38:00,
2013-08-03 04:43:00,64.7,34.9,29.94,NNW,336,3.5,3.5,33,0.00,CLR,,0.00,WeatherDisplay:10.37,2013-08-03 11:43:00,
2013-08-03 04:48:00,64.6,34.8,29.94,NNW,336,3.5,3.5,33,0.00,CLR,,0.00,WeatherDisplay:10.37,2013-08-03 11:48:00,
2013-08-03 04:53:00,64.3,34.6,29.94,NNW,336,3.5,3.5,33,0.00,CLR,,0.00,WeatherDisplay:10.37,2013-08-03 11:53:00,
2013-08-03 04:58:00,64.5,34.7,29.94,NNW,336,3.5,3.5,33,0.00,CLR,,0.00,WeatherDisplay:10.37,2013-08-03 11:58:00,
2013-08-03 05:03:00,64.4,34.6,29.94,NNW,336,3.5,3.5,33,0.00,CLR,,0.00,WeatherDisplay:10.37,2013-08-03 12:03:00,
2013-08-03 05:08:00,64.3,35.3,29.94,NNW,336,3.0,3.0,34,0.00,CLR,,0.00,WeatherDisplay:10.37,2013-08-03 12:08:00,
2013-08-03 05:13:00,64.5,36.2,29.94,NNW,336,4.0,4.0,35,0.00,CLR,,0.00,WeatherDisplay:10.37,2013-08-03 12:13:00,
2013-08-03 05:18:00,65.0,35.9,29.94,NNW,336,3.5,3.5,34,0.00,CLR,,0.00,WeatherDisplay:10.37,2013-08-03 12:18:00,
2013-08-03 05:23:00,64.8,36.5,29.94,NNW,336,2.3,2.3,35,0.00,CLR,,0.00,WeatherDisplay:10.37,2013-08-03 12:23:00,
2013-08-03 05:28:00,64.2,36.0,29.94,NNW,336,3.5,3.5,35,0.00,CLR,,0.00,WeatherDisplay:10.37,2013-08-03 12:28:00,
2013-08-03 05:33:00,63.8,36.3,29.94,NNW,336,3.5,3.5,36,0.00,CLR,,0.00,WeatherDisplay:10.37,2013-08-03 12:33:00,
2013-08-03 05:38:00,63.4,36.0,29.94,NNW,336,3.5,3.5,36,0.00,CLR,,0.00,WeatherDisplay:10.37,2013-08-03 12:38:00,
2013-08-03 05:43:00,63.3,35.9,29.94,NNW,336,3.5,3.5,36,0.00,CLR,,0.00,WeatherDisplay:10.37,2013-08-03 12:43:00,
2013-08-03 05:48:00,63.4,36.0,29.95,NNW,336,4.6,4.6,36,0.00,CLR,,0.00,WeatherDisplay:10.37,2013-08-03 12:48:00,
2013-08-03 05:53:00,64.1,35.9,29.95,NNW,336,4.6,4.6,35,0.00,CLR,,0.00,WeatherDisplay:10.37,2013-08-03 12:53:00,
2013-08-03 05:58:00,64.3,36.0,29.95,NNW,336,3.5,3.5,35,0.00,CLR,,0.00,WeatherDisplay:10.37,2013-08-03 12:58:00,
2013-08-03 06:03:00,64.4,36.1,29.95,NNW,336,2.3,2.3,35,0.00,CLR,,0.00,WeatherDisplay:10.37,2013-08-03 13:03:00,
2013-08-03 06:08:00,64.2,36.0,29.95,NNW,336,2.3,2.3,35,0.00,CLR,,0.00,WeatherDisplay:10.37,2013-08-03 13:08:00,
2013-08-03 06:13:00,63.9,35.7,29.95,NNW,336,3.5,3.5,35,0.00,CLR,,0.00,WeatherDisplay:10.37,2013-08-03 13:13:00,
2013-08-03 06:18:00,63.8,35.6,29.95,NNW,336,3.5,3.5,35,0.00,CLR,,0.00,WeatherDisplay:10.37,2013-08-03 13:18:00,
2013-08-03 06:23:00,63.5,35.3,29.95,NNW,336,2.3,2.3,35,0.00,CLR,,0.00,WeatherDisplay:10.37,2013-08-03 13:23:00,
2013-08-03 06:28:00,63.2,35.8,29.95,NNW,336,3.5,3.5,36,0.00,CLR,,0.00,WeatherDisplay:10.37,2013-08-03 13:28:00,
2013-08-03 06:33:00,63.2,35.8,29.96,NNW,336,2.3,2.3,36,0.00,CLR,,0.00,WeatherDisplay:10.37,2013-08-03 13:33:00,
2013-08-03 06:38:00,63.3,35.2,29.96,NNW,336,3.5,3.5,35,0.00,CLR,,0.00,WeatherDisplay:10.37,2013-08-03 13:38:00,
2013-08-03 06:43:00,63.6,35.4,29.96,NNW,336,2.0,2.0,35,0.00,CLR,,0.00,WeatherDisplay:10.37,2013-08-03 13:43:00,
2013-08-03 06:48:00,63.8,34.9,29.96,NNW,336,1.2,1.2,34,0.00,CLR,,0.00,WeatherDisplay:10.37,2013-08-03 13:48:00,
2013-08-03 06:53:00,63.9,35.0,29.96,NNW,336,3.5,3.5,34,0.00,CLR,,0.00,WeatherDisplay:10.37,2013-08-03 13:53:00,
2013-08-03 06:58:00,63.7,34.8,29.96,NNW,336,2.3,2.3,34,0.00,CLR,,0.00,WeatherDisplay:10.37,2013-08-03 13:58:00,
2013-08-03 07:03:00,63.3,34.4,29.96,NNW,336,0.0,0.0,34,0.00,CLR,,0.00,WeatherDisplay:10.37,2013-08-03 14:03:00,
2013-08-03 07:08:00,62.9,34.1,29.97,NNW,336,0.0,0.0,34,0.00,CLR,,0.00,WeatherDisplay:10.37,2013-08-03 14:08:00,
2013-08-03 07:13:00,62.6,33.8,29.97,NNW,336,0.0,0.0,34,0.00,CLR,,0.00,WeatherDisplay:10.37,2013-08-03 14:13:00,
2013-08-03 07:18:00,62.5,34.5,29.97,NNW,336,0.0,0.0,35,0.00,CLR,,0.00,WeatherDisplay:10.37,2013-08-03 14:18:00,
2013-08-03 07:23:00,62.6,35.3,29.97,NNW,336,1.0,1.0,36,0.00,CLR,,0.00,WeatherDisplay:10.37,2013-08-03 14:23:00,
2013-08-03 07:28:00,62.8,34.7,29.97,NNW,336,0.0,0.0,35,0.00,CLR,,0.00,WeatherDisplay:10.37,2013-08-03 14:28:00,
2013-08-03 07:33:00,63.0,34.9,29.97,NNW,336,0.0,0.0,35,0.00,CLR,,0.00,WeatherDisplay:10.37,2013-08-03 14:33:00,
2013-08-03 07:38:00,63.3,35.2,29.98,NNW,336,0.0,0.0,35,0.00,CLR,,0.00,WeatherDisplay:10.37,2013-08-03 14:38:00,
2013-08-03 07:43:00,63.6,35.4,29.98,NNW,336,0.0,0.0,35,0.00,CLR,,0.00,WeatherDisplay:10.37,2013-08-03 14:43:00,
2013-08-03 07:48:00,64.2,36.0,29.98,NNW,336,0.0,0.0,35,0.00,CLR,,0.00,WeatherDisplay:10.37,2013-08-03 14:48:00,
2013-08-03 07:53:00,64.9,35.1,29.98,NNW,336,0.0,0.0,33,0.00,CLR,,0.00,WeatherDisplay:10.37,2013-08-03 14:53:00,
2013-08-03 07:58:00,65.8,35.1,29.98,NNW,336,0.0,0.0,32,0.00,CLR,,0.00,WeatherDisplay:10.37,2013-08-03 14:58:00,
2013-08-03 08:03:00,66.5,36.5,29.98,NNW,336,0.0,0.0,33,0.00,CLR,,0.00,WeatherDisplay:10.37,2013-08-03 15:03:00,
2013-08-03 08:08:00,67.6,35.9,29.98,NNW,336,0.0,0.0,31,0.00,CLR,,0.00,WeatherDisplay:10.37,2013-08-03 15:08:00,
2013-08-03 08:13:00,68.7,36.8,29.98,NNW,336,0.0,0.0,31,0.00,CLR,,0.00,WeatherDisplay:10.37,2013-08-03 15:13:00,
2013-08-03 08:18:00,70.0,36.3,29.98,NNW,336,0.0,0.0,29,0.00,CLR,,0.00,WeatherDisplay:10.37,2013-08-03 15:18:00,
2013-08-03 08:23:00,71.0,36.2,29.98,NNW,336,1.2,1.2,28,0.00,CLR,,0.00,WeatherDisplay:10.37,2013-08-03 15:23:00,
2013-08-03 08:28:00,71.9,37.0,29.98,NNW,336,0.0,0.0,28,0.00,CLR,,0.00,WeatherDisplay:10.37,2013-08-03 15:28:00,
2013-08-03 08:33:00,73.1,37.1,29.98,NNW,336,4.0,4.0,27,0.00,CLR,,0.00,WeatherDisplay:10.37,2013-08-03 15:33:00,
2013-08-03 08:38:00,74.3,37.2,29.98,NNW,336,4.6,4.6,26,0.00,CLR,,0.00,WeatherDisplay:10.37,2013-08-03 15:38:00,
2013-08-03 08:43:00,74.9,37.7,29.98,NNW,336,3.5,3.5,26,0.00,CLR,,0.00,WeatherDisplay:10.37,2013-08-03 15:43:00,
2013-08-03 08:48:00,75.8,38.5,29.98,NNW,336,4.6,4.6,26,0.00,CLR,,0.00,WeatherDisplay:10.37,2013-08-03 15:48:00,
2013-08-03 08:53:00,76.7,38.2,29.98,NNW,336,6.9,6.9,25,0.00,CLR,,0.00,WeatherDisplay:10.37,2013-08-03 15:53:00,
2013-08-03 08:58:00,77.6,37.9,29.98,NNW,336,6.9,6.9,24,0.00,CLR,,0.00,WeatherDisplay:10.37,2013-08-03 15:58:00,
2013-08-03 09:03:00,78.4,38.6,29.98,NNW,336,5.8,5.8,24,0.00,CLR,,0.00,WeatherDisplay:10.37,2013-08-03 16:03:00,
2013-08-03 09:08:00,79.1,38.1,29.98,NNW,336,10.4,10.4,23,0.00,CLR,,0.00,WeatherDisplay:10.37,2013-08-03 16:08:00,
2013-08-03 09:13:00,79.5,38.4,29.98,NNW,336,7.0,7.0,23,0.00,CLR,,0.00,WeatherDisplay:10.37,2013-08-03 16:13:00,
2013-08-03 09:18:00,80.0,37.7,29.98,NNW,336,7.0,7.0,22,0.00,CLR,,0.00,WeatherDisplay:10.37,2013-08-03 16:18:00,
2013-08-03 09:23:00,80.4,36.9,29.98,NNW,336,6.9,6.9,21,0.00,CLR,,0.00,WeatherDisplay:10.37,2013-08-03 16:23:00,
2013-08-03 09:28:00,80.9,37.3,29.98,NNW,336,7.0,7.0,21,0.00,CLR,,0.00,WeatherDisplay:10.37,2013-08-03 16:28:00,
2013-08-03 09:33:00,81.5,37.8,29.97,NNW,336,4.6,4.6,21,0.00,CLR,,0.00,WeatherDisplay:10.37,2013-08-03 16:33:00,
2013-08-03 09:39:00,81.8,38.0,29.97,NNW,336,6.9,6.9,21,0.00,CLR,,0.00,WeatherDisplay:10.37,2013-08-03 16:39:00,
2013-08-03 09:44:00,82.2,37.1,29.97,NNW,336,5.8,5.8,20,0.00,CLR,,0.00,WeatherDisplay:10.37,2013-08-03 16:44:00,
2013-08-03 09:49:00,82.2,37.1,29.98,NNW,336,4.0,4.0,20,0.00,CLR,,0.00,WeatherDisplay:10.37,2013-08-03 16:49:00,
2013-08-03 09:54:00,82.8,36.3,29.98,NNW,336,5.8,5.8,19,0.00,CLR,,0.00,WeatherDisplay:10.37,2013-08-03 16:54:00,
2013-08-03 09:59:00,83.3,35.4,29.97,NNW,336,6.0,6.0,18,0.00,CLR,,0.00,WeatherDisplay:10.37,2013-08-03 16:59:00,
2013-08-03 10:04:00,84.0,37.3,29.97,NNW,336,5.0,5.0,19,0.00,CLR,,0.00,WeatherDisplay:10.37,2013-08-03 17:04:00,
2013-08-03 10:09:00,84.5,36.3,29.97,NNW,336,11.5,11.5,18,0.00,CLR,,0.00,WeatherDisplay:10.37,2013-08-03 17:09:00,
2013-08-03 10:14:00,84.8,36.6,29.98,NNW,336,5.8,5.8,18,0.00,CLR,,0.00,WeatherDisplay:10.37,2013-08-03 17:14:00,
2013-08-03 10:19:00,85.0,38.1,29.98,NNW,336,4.0,4.0,19,0.00,CLR,,0.00,WeatherDisplay:10.37,2013-08-03 17:19:00,
2013-08-03 10:24:00,85.7,37.3,29.97,NNW,336,4.6,4.6,18,0.00,CLR,,0.00,WeatherDisplay:10.37,2013-08-03 17:24:00,
2013-08-03 10:29:00,86.0,36.1,29.97,NNW,336,5.8,5.8,17,0.00,CLR,,0.00,WeatherDisplay:10.37,2013-08-03 17:29:00,
2013-08-03 10:34:00,85.9,36.0,29.97,NNW,336,2.3,2.3,17,0.00,CLR,,0.00,WeatherDisplay:10.37,2013-08-03 17:34:00,
2013-08-03 10:39:00,86.4,36.4,29.98,NNW,336,3.0,3.0,17,0.00,CLR,,0.00,WeatherDisplay:10.37,2013-08-03 17:39:00,
2013-08-03 10:44:00,86.1,36.2,29.98,NNW,336,5.8,5.8,17,0.00,CLR,,0.00,WeatherDisplay:10.37,2013-08-03 17:44:00,
2013-08-03 10:49:00,86.0,37.5,29.98,NNW,336,3.5,3.5,18,0.00,CLR,,0.00,WeatherDisplay:10.37,2013-08-03 17:49:00,
2013-08-03 10:54:00,86.1,36.2,29.98,NNW,336,3.5,3.5,17,0.00,CLR,,0.00,WeatherDisplay:10.37,2013-08-03 17:54:00,
2013-08-03 10:59:00,86.6,36.6,29.97,NNW,336,6.9,6.9,17,0.00,CLR,,0.00,WeatherDisplay:10.37,2013-08-03 17:59:00,
2013-08-03 11:04:00,87.2,37.1,29.97,NNW,336,6.9,6.9,17,0.00,CLR,,0.00,WeatherDisplay:10.37,2013-08-03 18:04:00,
2013-08-03 11:09:00,87.4,37.2,29.97,NNW,336,6.9,6.9,17,0.00,CLR,,0.00,WeatherDisplay:10.37,2013-08-03 18:09:00,
2013-08-03 11:14:00,87.6,35.9,29.97,NNW,336,6.0,6.0,16,0.00,CLR,,0.00,WeatherDisplay:10.37,2013-08-03 18:14:00,
2013-08-03 11:19:00,87.7,35.9,29.97,NNW,336,6.9,6.9,16,0.00,CLR,,0.00,WeatherDisplay:10.37,2013-08-03 18:19:00,
2013-08-03 11:24:00,89.0,37.0,29.97,NNW,336,6.9,6.9,16,0.00,CLR,,0.00,WeatherDisplay:10.37,2013-08-03 18:24:00,
2013-08-03 11:29:00,88.5,34.9,29.97,NNW,336,3.5,3.5,15,0.00,CLR,,0.00,WeatherDisplay:10.37,2013-08-03 18:29:00,
2013-08-03 11:34:00,89.1,33.7,29.97,NNW,336,3.5,3.5,14,0.00,CLR,,0.00,WeatherDisplay:10.37,2013-08-03 18:34:00,
2013-08-03 11:39:00,89.6,35.8,29.97,NNW,336,4.6,4.6,15,0.00,CLR,,0.00,WeatherDisplay:10.37,2013-08-03 18:39:00,
2013-08-03 11:44:00,89.9,34.3,29.97,NNW,336,0.0,0.0,14,0.00,CLR,,0.00,WeatherDisplay:10.37,2013-08-03 18:44:00,
2013-08-03 11:49:00,89.6,34.1,29.96,NNW,336,9.0,9.0,14,0.00,CLR,,0.00,WeatherDisplay:10.37,2013-08-03 18:49:00,
2013-08-03 11:54:00,89.1,35.4,29.96,NNW,336,6.0,6.0,15,0.00,CLR,,0.00,WeatherDisplay:10.37,2013-08-03 18:54:00,
2013-08-03 11:59:00,89.7,35.9,29.96,NNW,336,3.0,3.0,15,0.00,CLR,,0.00,WeatherDisplay:10.37,2013-08-03 18:59:00,
2013-08-03 12:04:00,91.0,35.2,29.96,NNW,336,6.9,6.9,14,0.00,CLR,,0.00,WeatherDisplay:10.37,2013-08-03 19:04:00,
2013-08-03 12:09:00,90.8,35.0,29.96,NNW,336,5.8,5.8,14,0.00,CLR,,0.00,WeatherDisplay:10.37,2013-08-03 19:09:00,
2013-08-03 12:14:00,91.0,35.2,29.96,NNW,336,5.8,5.8,14,0.00,CLR,,0.00,WeatherDisplay:10.37,2013-08-03 19:14:00,
2013-08-03 12:19:00,91.1,35.3,29.96,NNW,336,4.6,4.6,14,0.00,CLR,,0.00,WeatherDisplay:10.37,2013-08-03 19:19:00,
2013-08-03 12:24:00,91.3,35.4,29.96,NNW,336,5.8,5.8,14,0.00,CLR,,0.00,WeatherDisplay:10.37,2013-08-03 19:24:00,
2013-08-03 12:29:00,91.8,33.9,29.96,NNW,336,4.6,4.6,13,0.00,CLR,,0.00,WeatherDisplay:10.37,2013-08-03 19:29:00,
2013-08-03 12:34:00,92.0,34.1,29.96,NNW,336,2.3,2.3,13,0.00,CLR,,0.00,WeatherDisplay:10.37,2013-08-03 19:34:00,
2013-08-03 12:39:00,91.8,33.9,29.96,NNW,336,3.5,3.5,13,0.00,CLR,,0.00,WeatherDisplay:10.37,2013-08-03 19:39:00,
2013-08-03 12:44:00,92.0,34.1,29.96,NNW,336,2.3,0.0,13,0.00,CLR,,0.00,WeatherDisplay:10.37,2013-08-03 19:44:00,
2013-08-03 12:49:00,92.6,36.4,29.96,NNW,336,10.4,10.4,14,0.00,CLR,,0.00,WeatherDisplay:10.37,2013-08-03 19:49:00,
2013-08-03 12:54:00,93.1,35.0,29.96,NNW,336,6.9,6.9,13,0.00,CLR,,0.00,WeatherDisplay:10.37,2013-08-03 19:54:00,
2013-08-03 12:59:00,93.3,33.1,29.96,NNW,336,6.9,6.9,12,0.00,CLR,,0.00,WeatherDisplay:10.37,2013-08-03 19:59:00,
2013-08-03 13:04:00,92.9,36.7,29.95,NNW,336,4.0,4.0,14,0.00,CLR,,0.00,WeatherDisplay:10.37,2013-08-03 20:04:00,
2013-08-03 13:09:00,93.2,35.0,29.95,NNW,336,5.8,5.8,13,0.00,CLR,,0.00,WeatherDisplay:10.37,2013-08-03 20:09:00,
2013-08-03 13:14:00,93.6,35.4,29.95,NNW,336,11.5,11.5,13,0.00,CLR,,0.00,WeatherDisplay:10.37,2013-08-03 20:14:00,
2013-08-03 13:19:00,93.2,35.0,29.95,NNW,336,2.3,2.3,13,0.00,CLR,,0.00,WeatherDisplay:10.37,2013-08-03 20:19:00,
2013-08-03 13:24:00,93.7,37.3,29.95,NNW,336,3.5,3.5,14,0.00,CLR,,0.00,WeatherDisplay:10.37,2013-08-03 20:24:00,
2013-08-03 13:29:00,94.2,37.7,29.94,NNW,336,6.9,6.9,14,0.00,CLR,,0.00,WeatherDisplay:10.37,2013-08-03 20:29:00,
2013-08-03 13:34:00,94.1,39.4,29.94,NNW,336,0.0,0.0,15,0.00,CLR,,0.00,WeatherDisplay:10.37,2013-08-03 20:34:00,
2013-08-03 13:39:00,94.2,37.7,29.94,NNW,336,5.0,5.0,14,0.00,CLR,,0.00,WeatherDisplay:10.37,2013-08-03 20:39:00,
2013-08-03 13:44:00,94.2,37.7,29.94,NNW,336,9.2,9.2,14,0.00,CLR,,0.00,WeatherDisplay:10.37,2013-08-03 20:44:00,
2013-08-03 13:49:00,94.7,38.1,29.94,NNW,336,13.8,13.8,14,0.00,CLR,,0.00,WeatherDisplay:10.37,2013-08-03 20:49:00,
2013-08-03 13:54:00,94.7,36.2,29.94,NNW,336,9.2,9.2,13,0.00,CLR,,0.00,WeatherDisplay:10.37,2013-08-03 20:54:00,
2013-08-03 13:59:00,94.2,35.8,29.94,NNW,336,3.5,3.5,13,0.00,CLR,,0.00,WeatherDisplay:10.37,2013-08-03 20:59:00,
2013-08-03 14:04:00,94.9,36.4,29.94,NNW,336,5.0,5.0,13,0.00,CLR,,0.00,WeatherDisplay:10.37,2013-08-03 21:04:00,
2013-08-03 14:09:00,94.8,36.3,29.94,NNW,336,5.8,5.8,13,0.00,CLR,,0.00,WeatherDisplay:10.37,2013-08-03 21:09:00,
2013-08-03 14:14:00,94.7,38.1,29.93,NNW,336,8.1,8.1,14,0.00,CLR,,0.00,WeatherDisplay:10.37,2013-08-03 21:14:00,
2013-08-03 14:19:00,94.5,37.9,29.94,NNW,336,12.0,12.0,14,0.00,CLR,,0.00,WeatherDisplay:10.37,2013-08-03 21:19:00,
2013-08-03 14:24:00,94.9,40.0,29.93,NNW,336,12.0,12.0,15,0.00,CLR,,0.00,WeatherDisplay:10.37,2013-08-03 21:24:00,
2013-08-03 14:29:00,94.6,38.0,29.93,NNW,336,11.5,11.5,14,0.00,CLR,,0.00,WeatherDisplay:10.37,2013-08-03 21:29:00,
2013-08-03 14:34:00,94.7,38.1,29.93,NNW,336,7.0,7.0,14,0.00,CLR,,0.00,WeatherDisplay:10.37,2013-08-03 21:34:00,
2013-08-03 14:39:00,94.6,38.0,29.93,NNW,336,13.8,13.8,14,0.00,CLR,,0.00,WeatherDisplay:10.37,2013-08-03 21:39:00,
2013-08-03 14:44:00,93.8,37.4,29.93,NNW,336,9.2,9.2,14,0.00,CLR,,0.00,WeatherDisplay:10.37,2013-08-03 21:44:00,
2013-08-03 14:49:00,94.2,37.7,29.93,NNW,336,11.5,11.5,14,0.00,CLR,,0.00,WeatherDisplay:10.37,2013-08-03 21:49:00,
2013-08-03 14:54:00,94.8,38.2,29.93,NNW,336,12.0,12.0,14,0.00,CLR,,0.00,WeatherDisplay:10.37,2013-08-03 21:54:00,
2013-08-03 14:59:00,95.0,38.3,29.93,NNW,336,12.7,12.7,14,0.00,CLR,,0.00,WeatherDisplay:10.37,2013-08-03 21:59:00,
2013-08-03 15:04:00,95.3,36.7,29.93,NNW,336,11.5,11.5,13,0.00,CLR,,0.00,WeatherDisplay:10.37,2013-08-03 22:04:00,
2013-08-03 15:09:00,95.2,36.6,29.92,NNW,336,11.5,11.5,13,0.00,CLR,,0.00,WeatherDisplay:10.37,2013-08-03 22:09:00,
2013-08-03 15:14:00,95.5,38.7,29.92,NNW,336,8.0,8.0,14,0.00,CLR,,0.00,WeatherDisplay:10.37,2013-08-03 22:14:00,
2013-08-03 15:19:00,96.1,39.2,29.92,NNW,336,15.0,15.0,14,0.00,CLR,,0.00,WeatherDisplay:10.37,2013-08-03 22:19:00,
2013-08-03 15:24:00,95.9,39.0,29.92,NNW,336,12.0,12.0,14,0.00,CLR,,0.00,WeatherDisplay:10.37,2013-08-03 22:24:00,
2013-08-03 15:29:00,94.6,41.5,29.92,NNW,336,17.0,17.0,16,0.00,CLR,,0.00,WeatherDisplay:10.37,2013-08-03 22:29:00,
2013-08-03 15:34:00,94.3,42.8,29.92,NNW,336,13.8,13.8,17,0.00,CLR,,0.00,WeatherDisplay:10.37,2013-08-03 22:34:00,
2013-08-03 15:39:00,94.8,41.6,29.92,NNW,336,16.1,16.1,16,0.00,CLR,,0.00,WeatherDisplay:10.37,2013-08-03 22:39:00,
2013-08-03 15:44:00,94.5,42.9,29.92,NNW,336,12.7,12.7,17,0.00,CLR,,0.00,WeatherDisplay:10.37,2013-08-03 22:44:00,
2013-08-03 15:49:00,94.1,42.6,29.92,NNW,336,19.6,19.6,17,0.00,CLR,,0.00,WeatherDisplay:10.37,2013-08-03 22:49:00,
2013-08-03 15:54:00,94.0,42.5,29.92,NNW,336,15.0,15.0,17,0.00,CLR,,0.00,WeatherDisplay:10.37,2013-08-03 22:54:00,
2013-08-03 15:59:00,93.9,44.0,29.92,NNW,336,17.3,17.3,18,0.00,CLR,,0.00,WeatherDisplay:10.37,2013-08-03 22:59:00,
2013-08-03 16:04:00,94.0,44.0,29.92,NNW,336,19.6,19.6,18,0.00,CLR,,0.00,WeatherDisplay:10.37,2013-08-03 23:04:00,
2013-08-03 16:09:00,93.7,43.8,29.92,NNW,336,19.6,19.6,18,0.00,CLR,,0.00,WeatherDisplay:10.37,2013-08-03 23:09:00,
2013-08-03 16:14:00,93.6,43.7,29.92,NNW,336,18.4,18.4,18,0.00,CLR,,0.00,WeatherDisplay:10.37,2013-08-03 23:14:00,
2013-08-03 16:19:00,93.5,43.6,29.92,NNW,336,19.6,19.6,18,0.00,CLR,,0.00,WeatherDisplay:10.37,2013-08-03 23:19:00,
2013-08-03 16:24:00,93.4,42.1,29.92,NNW,336,18.4,18.4,17,0.00,CLR,,0.00,WeatherDisplay:10.37,2013-08-03 23:24:00,
2013-08-03 16:29:00,93.2,43.4,29.92,NNW,336,19.6,19.6,18,0.00,CLR,,0.00,WeatherDisplay:10.37,2013-08-03 23:29:00,
2013-08-03 16:34:00,92.8,43.1,29.92,NNW,336,19.6,19.6,18,0.00,CLR,,0.00,WeatherDisplay:10.37,2013-08-03 23:34:00,
2013-08-03 16:39:00,92.4,41.3,29.92,NNW,336,20.0,20.0,17,0.00,CLR,,0.00,WeatherDisplay:10.37,2013-08-03 23:39:00,
2013-08-03 16:44:00,91.9,43.7,29.92,NNW,336,20.7,20.7,19,0.00,CLR,,0.00,WeatherDisplay:10.37,2013-08-03 23:44:00,
2013-08-03 16:49:00,91.8,43.7,29.92,NNW,336,21.9,21.9,19,0.00,CLR,,0.00,WeatherDisplay:10.37,2013-08-03 23:49:00,
2013-08-03 16:54:00,91.1,43.1,29.92,NNW,336,19.6,19.6,19,0.00,CLR,,0.00,WeatherDisplay:10.37,2013-08-03 23:54:00,
2013-08-03 16:59:00,91.1,43.1,29.92,NNW,336,21.9,21.9,19,0.00,CLR,,0.00,WeatherDisplay:10.37,2013-08-03 23:59:00,
2013-08-03 17:04:00,91.1,44.4,29.91,NNW,336,18.4,18.4,20,0.00,CLR,,0.00,WeatherDisplay:10.37,2013-08-04 00:04:00,
2013-08-03 17:09:00,90.5,43.9,29.91,NNW,336,21.9,21.9,20,0.00,CLR,,0.00,WeatherDisplay:10.37,2013-08-04 00:09:00,
2013-08-03 17:14:00,90.1,43.6,29.91,NNW,336,21.9,21.9,20,0.00,CLR,,0.00,WeatherDisplay:10.37,2013-08-04 00:14:00,
2013-08-03 17:19:00,90.1,44.9,29.91,NNW,336,21.9,21.9,21,0.00,CLR,,0.00,WeatherDisplay:10.37,2013-08-04 00:19:00,
2013-08-03 17:24:00,90.4,46.4,29.91,NNW,336,16.1,16.1,22,0.00,CLR,,0.00,WeatherDisplay:10.37,2013-08-04 00:24:00,
2013-08-03 17:29:00,90.1,44.9,29.91,NNW,336,25.3,25.3,21,0.00,CLR,,0.00,WeatherDisplay:10.37,2013-08-04 00:29:00,
2013-08-03 17:34:00,89.8,45.9,29.91,NNW,336,19.6,19.6,22,0.00,CLR,,0.00,WeatherDisplay:10.37,2013-08-04 00:34:00,
2013-08-03 17:39:00,89.4,45.5,29.91,NNW,336,24.0,24.0,22,0.00,CLR,,0.00,WeatherDisplay:10.37,2013-08-04 00:39:00,
2013-08-03 17:44:00,89.6,44.5,29.91,NNW,336,20.7,20.7,21,0.00,CLR,,0.00,WeatherDisplay:10.37,2013-08-04 00:44:00,
2013-08-03 17:49:00,89.9,42.1,29.91,NNW,336,24.0,24.0,19,0.00,CLR,,0.00,WeatherDisplay:10.37,2013-08-04 00:49:00,
2013-08-03 17:54:00,89.6,43.2,29.91,NNW,336,19.6,19.6,20,0.00,CLR,,0.00,WeatherDisplay:10.37,2013-08-04 00:54:00,
2013-08-03 17:59:00,89.7,43.3,29.91,NNW,336,23.0,23.0,20,0.00,CLR,,0.00,WeatherDisplay:10.37,2013-08-04 00:59:00,
2013-08-03 18:04:00,89.4,43.0,29.91,NNW,336,21.9,21.9,20,0.00,CLR,,0.00,WeatherDisplay:10.37,2013-08-04 01:04:00,
2013-08-03 18:09:00,89.1,41.5,29.91,NNW,336,24.2,24.2,19,0.00,CLR,,0.00,WeatherDisplay:10.37,2013-08-04 01:09:00,
2013-08-03 18:14:00,88.7,43.7,29.91,NNW,336,21.9,21.9,21,0.00,CLR,,0.00,WeatherDisplay:10.37,2013-08-04 01:14:00,
2013-08-03 18:19:00,88.2,44.5,29.91,NNW,336,25.3,25.3,22,0.00,CLR,,0.00,WeatherDisplay:10.37,2013-08-04 01:19:00,
2013-08-03 18:24:00,87.7,44.1,29.91,NNW,336,20.7,20.7,22,0.00,CLR,,0.00,WeatherDisplay:10.37,2013-08-04 01:24:00,
2013-08-03 18:29:00,87.4,43.9,29.91,NNW,336,21.9,21.9,22,0.00,CLR,,0.00,WeatherDisplay:10.37,2013-08-04 01:29:00,
2013-08-03 18:34:00,87.2,46.0,29.91,NNW,336,16.1,16.1,24,0.00,CLR,,0.00,WeatherDisplay:10.37,2013-08-04 01:34:00,
2013-08-03 18:39:00,87.1,44.8,29.91,NNW,336,21.9,21.9,23,0.00,CLR,,0.00,WeatherDisplay:10.37,2013-08-04 01:39:00,
2013-08-03 18:44:00,86.6,46.6,29.91,NNW,336,19.6,19.6,25,0.00,CLR,,0.00,WeatherDisplay:10.37,2013-08-04 01:44:00,
2013-08-03 18:49:00,86.0,46.1,29.91,NNW,336,24.2,24.2,25,0.00,CLR,,0.00,WeatherDisplay:10.37,2013-08-04 01:49:00,
2013-08-03 18:54:00,85.8,45.9,29.92,NNW,336,15.0,15.0,25,0.00,CLR,,0.00,WeatherDisplay:10.37,2013-08-04 01:54:00,
2013-08-03 18:59:00,85.5,46.7,29.92,NNW,336,19.6,19.6,26,0.00,CLR,,0.00,WeatherDisplay:10.37,2013-08-04 01:59:00,
2013-08-03 19:04:00,84.6,47.9,29.92,NNW,336,20.7,20.7,28,0.00,CLR,,0.00,WeatherDisplay:10.37,2013-08-04 02:04:00,
2013-08-03 19:09:00,84.0,47.4,29.92,NNW,336,23.0,23.0,28,0.00,CLR,,0.00,WeatherDisplay:10.37,2013-08-04 02:09:00,
2013-08-03 19:15:00,83.6,48.0,29.92,NNW,336,19.6,19.6,29,0.00,CLR,,0.00,WeatherDisplay:10.37,2013-08-04 02:15:00,
2013-08-03 19:20:00,83.0,47.5,29.92,NNW,336,23.0,23.0,29,0.00,CLR,,0.00,WeatherDisplay:10.37,2013-08-04 02:20:00,
2013-08-03 19:25:00,82.3,46.9,29.92,NNW,336,25.3,25.3,29,0.00,CLR,,0.00,WeatherDisplay:10.37,2013-08-04 02:25:00,
2013-08-03 19:30:00,81.9,47.4,29.92,NNW,336,19.6,19.6,30,0.00,CLR,,0.00,WeatherDisplay:10.37,2013-08-04 02:30:00,
2013-08-03 19:35:00,81.4,47.0,29.92,NNW,336,17.3,17.3,30,0.00,CLR,,0.00,WeatherDisplay:10.37,2013-08-04 02:35:00,
2013-08-03 19:40:00,81.0,48.4,29.92,NNW,336,21.9,21.9,32,0.00,CLR,,0.00,WeatherDisplay:10.37,2013-08-04 02:40:00,
2013-08-03 19:45:00,80.5,48.7,29.92,NNW,336,18.4,18.4,33,0.00,CLR,,0.00,WeatherDisplay:10.37,2013-08-04 02:45:00,
2013-08-03 19:50:00,80.1,48.4,29.92,NNW,336,19.6,19.6,33,0.00,CLR,,0.00,WeatherDisplay:10.37,2013-08-04 02:50:00,
2013-08-03 19:55:00,79.7,48.0,29.92,NNW,336,15.0,15.0,33,0.00,CLR,,0.00,WeatherDisplay:10.37,2013-08-04 02:55:00,
2013-08-03 20:00:00,79.6,47.1,29.93,NNW,336,19.6,19.6,32,0.00,CLR,,0.00,WeatherDisplay:10.37,2013-08-04 03:00:00,
2013-08-03 20:05:00,79.3,46.0,29.93,NNW,336,13.8,13.8,31,0.00,CLR,,0.00,WeatherDisplay:10.37,2013-08-04 03:05:00,
2013-08-03 20:10:00,79.0,45.8,29.93,NNW,336,15.0,15.0,31,0.00,CLR,,0.00,WeatherDisplay:10.37,2013-08-04 03:10:00,
2013-08-03 20:15:00,78.7,44.7,29.93,NNW,336,16.0,16.0,30,0.00,CLR,,0.00,WeatherDisplay:10.37,2013-08-04 03:15:00,
2013-08-03 20:20:00,78.4,43.5,29.94,NNW,336,17.3,17.3,29,0.00,CLR,,0.00,WeatherDisplay:10.37,2013-08-04 03:20:00,
2013-08-03 20:25:00,78.0,42.2,29.94,NNW,336,11.5,11.5,28,0.00,CLR,,0.00,WeatherDisplay:10.37,2013-08-04 03:25:00,
2013-08-03 20:30:00,77.8,42.1,29.94,NNW,336,11.5,11.5,28,0.00,CLR,,0.00,WeatherDisplay:10.37,2013-08-04 03:30:00,
2013-08-03 20:35:00,77.4,41.7,29.94,NNW,336,16.1,16.1,28,0.00,CLR,,0.00,WeatherDisplay:10.37,2013-08-04 03:35:00,
2013-08-03 20:40:00,77.3,40.7,29.94,NNW,336,13.8,13.8,27,0.00,CLR,,0.00,WeatherDisplay:10.37,2013-08-04 03:40:00,
2013-08-03 20:45:00,77.1,39.6,29.95,NNW,336,18.4,18.4,26,0.00,CLR,,0.00,WeatherDisplay:10.37,2013-08-04 03:45:00,
2013-08-03 20:50:00,76.9,39.4,29.95,NNW,336,15.0,15.0,26,0.00,CLR,,0.00,WeatherDisplay:10.37,2013-08-04 03:50:00,
2013-08-03 20:55:00,76.6,39.1,29.95,NNW,336,15.0,15.0,26,0.00,CLR,,0.00,WeatherDisplay:10.37,2013-08-04 03:55:00,
2013-08-03 21:00:00,76.3,39.8,29.95,NNW,336,15.0,15.0,27,0.00,CLR,,0.00,WeatherDisplay:10.37,2013-08-04 04:00:00,
2013-08-03 21:01:00,76.2,39.8,29.95,NNW,336,12.7,12.7,27,0.00,CLR,,0.00,WeatherDisplay:10.37,2013-08-04 04:01:00,
2013-08-03 21:02:00,76.2,40.7,29.95,NNW,336,12.7,12.7,28,0.00,CLR,,0.00,WeatherDisplay:10.37,2013-08-04 04:02:00,
2013-08-03 21:03:00,76.1,40.6,29.95,NNW,336,11.5,11.5,28,0.00,CLR,,0.00,WeatherDisplay:10.37,2013-08-04 04:03:00,
2013-08-03 21:08:00,75.9,41.3,29.95,NNW,336,13.8,13.8,29,0.00,CLR,,0.00,WeatherDisplay:10.37,2013-08-04 04:08:00,
2013-08-03 21:13:00,75.7,42.9,29.95,NNW,336,10.4,10.4,31,0.00,CLR,,0.00,WeatherDisplay:10.37,2013-08-04 04:13:00,
2013-08-03 21:18:00,75.4,43.5,29.95,NNW,336,9.2,9.2,32,0.00,CLR,,0.00,WeatherDisplay:10.37,2013-08-04 04:18:00,
2013-08-03 21:23:00,75.1,43.2,29.96,NNW,336,10.4,10.4,32,0.00,CLR,,0.00,WeatherDisplay:10.37,2013-08-04 04:23:00,
2013-08-03 21:29:00,75.1,43.2,29.96,NNW,336,10.4,10.4,32,0.00,CLR,,0.00,WeatherDisplay:10.37,2013-08-04 04:29:00,
2013-08-03 21:34:00,75.2,42.5,29.96,NNW,336,6.9,6.9,31,0.00,CLR,,0.00,WeatherDisplay:10.37,2013-08-04 04:34:00,
2013-08-03 21:39:00,75.3,42.6,29.96,NNW,336,9.0,9.0,31,0.00,CLR,,0.00,WeatherDisplay:10.37,2013-08-04 04:39:00,
2013-08-03 21:44:00,75.2,42.5,29.96,NNW,336,11.5,11.5,31,0.00,CLR,,0.00,WeatherDisplay:10.37,2013-08-04 04:44:00,
2013-08-03 21:49:00,75.0,43.1,29.97,NNW,336,10.4,10.4,32,0.00,CLR,,0.00,WeatherDisplay:10.37,2013-08-04 04:49:00,
2013-08-03 21:54:00,74.6,42.0,29.97,NNW,336,13.8,13.8,31,0.00,CLR,,0.00,WeatherDisplay:10.37,2013-08-04 04:54:00,
2013-08-03 21:59:00,74.4,41.8,29.97,NNW,336,5.8,5.8,31,0.00,CLR,,0.00,WeatherDisplay:10.37,2013-08-04 04:59:00,
2013-08-03 22:04:00,74.3,41.7,29.97,NNW,336,4.0,4.0,31,0.00,CLR,,0.00,WeatherDisplay:10.37,2013-08-04 05:04:00,
2013-08-03 22:09:00,74.2,41.6,29.97,NNW,336,4.6,4.6,31,0.00,CLR,,0.00,WeatherDisplay:10.37,2013-08-04 05:09:00,
2013-08-03 22:14:00,74.3,40.8,29.97,NNW,336,5.0,5.0,30,0.00,CLR,,0.00,WeatherDisplay:10.37,2013-08-04 05:14:00,
2013-08-03 22:19:00,74.4,40.9,29.97,NNW,336,6.0,6.0,30,0.00,CLR,,0.00,WeatherDisplay:10.37,2013-08-04 05:19:00,
2013-08-03 22:24:00,74.4,40.1,29.97,NNW,336,8.1,8.1,29,0.00,CLR,,0.00,WeatherDisplay:10.37,2013-08-04 05:24:00,
2013-08-03 22:29:00,74.3,40.0,29.97,NNW,336,6.9,6.9,29,0.00,CLR,,0.00,WeatherDisplay:10.37,2013-08-04 05:29:00,
2013-08-03 22:34:00,74.1,39.8,29.97,NNW,336,3.5,3.5,29,0.00,CLR,,0.00,WeatherDisplay:10.37,2013-08-04 05:34:00,
2013-08-03 22:39:00,73.8,39.5,29.97,NNW,336,5.0,5.0,29,0.00,CLR,,0.00,WeatherDisplay:10.37,2013-08-04 05:39:00,
2013-08-03 22:44:00,73.3,39.1,29.97,NNW,336,4.6,4.6,29,0.00,CLR,,0.00,WeatherDisplay:10.37,2013-08-04 05:44:00,
2013-08-03 22:49:00,72.8,39.5,29.97,NNW,336,4.6,4.6,30,0.00,CLR,,0.00,WeatherDisplay:10.37,2013-08-04 05:49:00,
2013-08-03 22:54:00,72.2,39.0,29.97,NNW,336,4.0,4.0,30,0.00,CLR,,0.00,WeatherDisplay:10.37,2013-08-04 05:54:00,
2013-08-03 22:59:00,71.6,38.5,29.97,NNW,336,3.5,3.5,30,0.00,CLR,,0.00,WeatherDisplay:10.37,2013-08-04 05:59:00,
2013-08-03 23:04:00,71.2,38.2,29.97,NNW,336,3.5,3.5,30,0.00,CLR,,0.00,WeatherDisplay:10.37,2013-08-04 06:04:00,
2013-08-03 23:09:00,71.1,38.1,29.97,NNW,336,4.6,4.6,30,0.00,CLR,,0.00,WeatherDisplay:10.37,2013-08-04 06:09:00,
2013-08-03 23:14:00,70.9,37.9,29.97,NNW,336,3.5,3.5,30,0.00,CLR,,0.00,WeatherDisplay:10.37,2013-08-04 06:14:00,
2013-08-03 23:19:00,70.8,37.8,29.97,NNW,336,4.6,4.6,30,0.00,CLR,,0.00,WeatherDisplay:10.37,2013-08-04 06:19:00,
2013-08-03 23:24:00,70.6,37.6,29.97,NNW,336,5.8,5.8,30,0.00,CLR,,0.00,WeatherDisplay:10.37,2013-08-04 06:24:00,
2013-08-03 23:29:00,70.4,37.5,29.97,NNW,336,5.0,5.0,30,0.00,CLR,,0.00,WeatherDisplay:10.37,2013-08-04 06:29:00,
2013-08-03 23:34:00,70.1,37.2,29.97,NNW,336,4.0,4.0,30,0.00,CLR,,0.00,WeatherDisplay:10.37,2013-08-04 06:34:00,
2013-08-03 23:39:00,70.2,37.3,29.97,NNW,336,5.0,5.0,30,0.00,CLR,,0.00,WeatherDisplay:10.37,2013-08-04 06:39:00,
2013-08-03 23:44:00,70.4,39.1,29.98,NNW,336,3.5,3.5,32,0.00,CLR,,0.00,WeatherDisplay:10.37,2013-08-04 06:44:00,
2013-08-03 23:49:00,70.8,39.5,29.98,NNW,336,4.0,4.0,32,0.00,CLR,,0.00,WeatherDisplay:10.37,2013-08-04 06:49:00,
2013-08-03 23:54:00,70.9,39.6,29.98,NNW,336,5.8,5.8,32,0.00,CLR,,0.00,WeatherDisplay:10.37,2013-08-04 06:54:00,
2013-08-03 23:59:00,70.7,39.4,29.97,NNW,336,5.8,5.8,32,0.00,CLR,,0.00,WeatherDisplay:10.37,2013-08-04 06:59:00,